Weather for Spain

Place Alerts Temp. Conditions Humidity Pressure Wind Updated
Adrall 0            
Ahin 0 51.4 °F 87% 30.18 in Calm 7:31 PM CET
Albacete 0 57.9 °F 38% 30.06 in SSW at 1.3 mph 7:31 PM CET
Albujon 0 53.9 °F 81% 29.95 in North at 2.0 mph 7:30 PM CET
Aldea del Fresno 0 43 °F Partly Cloudy 53% 30.21 in NE at 13 mph 8:00 PM CET
Aler 0 39 °F Overcast 87% 30.30 in West at 8 mph 1:00 AM CET
Alicante 0 53.4 °F 88% 29.95 in Calm 7:30 PM CET
Almaden de la Plata 0 59.9 °F 31% 30.01 in Calm 7:31 PM CET
Almeria 0 48 °F Light Rain 87% 29.95 in NNE at 9 mph 1:00 AM CET
Ambosores 0 64.3 °F 55% 30.48 in Calm 7:31 PM CET
Aneto 0            
Ares 0 53.1 °F 86% 30.48 in Calm 7:31 PM CET
Argut-Dessous 0 44.1 °F 91% 30.48 in Calm 7:31 PM CET
Asturias 0 54.0 °F 73% 30.54 in ESE at 2.7 mph 7:31 PM CET
Avila 0 56.5 °F 32% 30.27 in Calm 7:31 PM CET
Avileses 0 54 °F Light Showers Rain Thunderstorm 77% 29.95 in NNE at 17 mph 1:47 AM CET
Badajoz 0 43 °F 53% 30.14 in ENE at 9 mph 9:00 PM WET
Barajas de Melo 0 55.4 °F 32% 30.21 in North at 1.6 mph 7:30 PM CET
Barcelona 0 59.0 °F 53% 30.27 in Calm 7:31 PM CET
Berga 0            
Bilbao 0 52.7 °F 86% 30.57 in Calm 7:31 PM CET
Bompas 0 39 °F Light Rain 87% 30.57 in East at 9 mph 1:00 AM CET
Burgos 0 53.1 °F 45% 30.39 in Calm 7:31 PM CET
Caceres 0 44 °F 54% 30.18 in ENE at 10 mph 10:00 PM CET
Calamocha 0 48.9 °F 51% 30.44 in Calm 7:30 PM CET
Candanchu 0 38.1 °F 72% 29.93 in North at 3.4 mph 7:31 PM CET
Caraquiz 0 39 °F Clear 65% 30.21 in NE at 17 mph 1:00 AM CET
Carrascalejo 0 48.0 °F 81% 30.01 in Calm 7:31 PM CET
Castet 0 48.9 °F 84% 30.48 in Calm 7:31 PM CET
Cerler 0 43.8 °F 62% 30.12 in Calm 7:31 PM CET
Ceuta 0 48 °F Scattered Clouds 93% 29.92 in Variable at 2 mph 12:00 AM +01
Ciudad Real 0 62.3 °F 34% 30.09 in Calm 7:26 PM CET
Codalet 0 51.7 °F 64% 30.57 in WSW at 4.0 mph 7:30 PM CET
Cordoba 0 65.1 °F 59% 30.01 in SSW at 1.8 mph 7:31 PM CET
Cuenca 0 57.6 °F 38% 30.42 in Calm 7:28 PM CET
Daroca 0 43.2 °F 57% 30.18 in NNE at 5.6 mph 7:31 PM CET
Erbera 0 50.2 °F 91% 30.57 in Calm 7:30 PM CET
Gijon 0 55.5 °F 82% 30.54 in Calm 7:31 PM CET
Girona 0 59.5 °F 74% 30.45 in Calm 7:28 PM CET
Guadalajara 0 58.8 °F -999% 30.21 in Calm 7:30 PM CET
Henares 0 50.7 °F 63% 30.04 in Calm 7:31 PM CET
Hinojosa Del Duque 0 53.8 °F 62% 30.41 in Calm 7:30 PM CET
Huelva 0 47 °F 59% 30.02 in NNE at 5 mph 12:00 AM WET
Huesca 0 52.0 °F 66% 30.39 in Calm 7:30 PM CET
Ibiza 0 57 °F Showers Rain 88% 30.01 in NE at 18 mph 1:00 AM CET
Isaba 0 39.9 °F 86% 30.42 in Calm 7:31 PM CET
Jaen 0 37 °F Clear 87% 29.95 in Calm 1:00 AM CET
Jerez de la Frontera 0 48 °F Scattered Clouds 76% 29.98 in NNE at 10 mph 1:00 AM CET
La Coruna 0 57.4 °F 83% 30.48 in West at 1.2 mph 7:31 PM CET
La Mudarra 0 49.8 °F 69% 30.30 in Calm 7:31 PM CET
Lagostelle 0 46 °F Mostly Cloudy 66% 30.48 in ENE at 9 mph 1:00 AM CET
Le Plan 0 43.2 °F 87% 30.48 in Calm 7:31 PM CET
Leon 0 54.9 °F 48% 30.36 in Calm 7:31 PM CET
Lleida 0 56.5 °F 61% 30.30 in Calm 7:31 PM CET
Logrono 0 57.4 °F 63% 30.45 in Calm 7:31 PM CET
Los Fayos 0 47.5 °F 76% 30.39 in SSW at 4.3 mph 7:31 PM CET
Lugo 0 47.5 °F 76% 30.42 in SSW at 4.3 mph 7:31 PM CET
Malaga 0 59.0 °F 72% 29.95 in Calm 7:31 PM CET
Masella 0            
Melilla 0 60.6 °F 77% 29.91 in East at 8.1 mph 7:31 PM CET
Menorca 0 53.2 °F 72% 30.15 in NW at 3.1 mph 7:21 PM CET
Molina De Aragon 0 29 °F Snow Grains 89%  in NE at 5 mph 1:00 AM CET
Moron de la Frontera 0 64.2 °F 59% 29.98 in SE at 4.0 mph 7:30 PM CET
Murcia 0 54 °F Light Showers Rain Thunderstorm 77% 29.95 in NNE at 17 mph 1:47 AM CET
Noblejas 0 56.5 °F 44% 30.21 in Calm 7:31 PM CET
Orense 0 60.6 °F 99% 30.33 in Calm 7:31 PM CET
Oviedo 0 56.8 °F 82% 30.54 in Calm 7:31 PM CET
Palma de Mallorca 0 56.0 °F 73% 30.09 in North at 1.2 mph 7:31 PM CET
Pamplona 0 34 °F Clear 75% 30.42 in NW at 9 mph 1:00 AM CET
Panticosa 0 45.3 °F 52% 30.00 in Calm 7:31 PM CET
Planes 0 45.7 °F 35% 30.57 in ENE at 2.7 mph 7:31 PM CET
Ponferrada 0 53.4 °F 61% 30.36 in Calm 7:31 PM CET
Pontevedra 0 59.7 °F 48% 30.33 in South at 2.3 mph 7:31 PM CET
Reus 0 55.9 °F 72% 30.24 in Calm 7:31 PM CET
Rota 0 48 °F Mostly Cloudy 76% 29.98 in NE at 12 mph 1:00 AM CET
Sabadell 0 46 °F Light Showers Rain 81% 30.33 in NE at 15 mph 1:00 AM CET
Salamanca 0 30 °F Mostly Cloudy 86% 30.27 in ENE at 17 mph 1:00 AM CET
Sallent de Gallego 0 45.3 °F 52% 30.00 in Calm 7:31 PM CET
San Lorenzo de El Escorial 0 26 °F Mist 98%  in East at 18 mph 1:00 AM CET
Santander 0 55.2 °F 80% 30.57 in Calm 7:31 PM CET
Santander Airport 0 52.3 °F 89% 30.57 in Calm 7:31 PM CET
Santiago de Compostela 0 56.3 °F 73% 30.42 in Calm 7:31 PM CET
Seich 0 45.7 °F 96% 30.48 in Calm 7:31 PM CET
Soria 0 33 °F 50%  in NE at 9 mph 10:00 PM CET
Sort 0 50.7 °F 60% 30.19 in Calm 7:31 PM CET
Teruel 0 46.0 °F 45% 29.87 in SE at 6.0 mph 7:31 PM CET
Toledo 0 41 °F Scattered Clouds 57% 30.21 in North at 15 mph 1:00 AM CET
Tortosa 0 46.6 °F 99% 30.24 in SE at 1.1 mph 7:31 PM CET
Tous 0 53.2 °F 84% 29.95 in Calm 7:31 PM CET
Valladolid 0 57.7 °F 44% 30.30 in Calm 7:30 PM CET
Vitoria 0 51.2 °F 73% 30.48 in Calm 7:31 PM CET
Zaragoza 0 60.1 °F 60% 30.39 in South at 3.4 mph 7:31 PM CET

Alerts Legend

Tornado Warning Tornado Warning
Tornado Watch Tornado Watch
Severe Thunderstorm Warning Severe Thunderstorm Warning
Severe Thunderstorm Watch Severe Thunderstorm Watch
High Wind Advisory High Wind Advisory
Flood Warning Flood Warning
Flood Watch / Flood Statement Flood Watch / Flood Statement
Hurricane Local Statement Hurricane Local Statement
Winter Weather Statement Winter Weather Statement
Heat Advisory Heat Advisory
Dense Fog Advisory Dense Fog Advisory
Fire Weather Advisory Fire Weather Advisory
Hurricane Watch Special Weather Statement
Hurricane Warning Record Set
Tropical Storm Watch Public Report
Tropical Storm Warning Public Statement